Location: Ernez
(36.4595°N, 29.8755°E)
Time: 08:52:15
(UTC+00:00)

Cosmos 2034 Rocket - Pass Details

Date: 13 November 2025
Orbit: 958 x 999 km, 82.9° (Epoch: 04 December)

Event Time Altitude Azimuth Distance (km) Brightness Sun altitude
Rises 17:26:22 0° 197° (SSW) 3,626 7.2 -30.8°
Reaches altitude 10° 17:28:54 10° 201° (SSW) 2,686 6.5 -31.4°
Maximum altitude 17:34:55 57° 279° (W) 1,132 4.5 -32.6°
Enters shadow 17:39:27 18° 353° (N) 2,166 5.8 -33.5°
Exits shadow 17:42:10 - 360° (N) 3,139 6.7 -34.0°
Sets 17:43:37 0° 2° (N) 3,681 7.0 -34.3°
